Location: Altleiningen
(49.5078°N, 8.0741°E)
Time: 05:04:33
(UTC+00:00)

Okean-O - Pass Details

Date: 03 March 2021
Orbit: 638 x 640 km, 98.2° (Epoch: 11 April)

Event Time Altitude Azimuth Distance (km) Brightness Sun altitude
Rises 18:22:10 0° 174° (S) 2,934 5.9 -11.9°
Reaches altitude 10° 18:24:23 10° 178° (S) 2,029 5.1 -12.2°
Maximum altitude 18:28:46 60° 259° (WSW) 735 3.2 -12.9°
Drops below altitude 10° 18:33:11 10° 339° (NNW) 2,045 5.6 -13.6°
Sets 18:35:25 0° 343° (NNW) 2,959 6.4 -14.0°
